TimeMST,TemperatureF,Dew PointF,Humidity,Sea Level PressureIn,VisibilityMPH,Wind Direction,Wind SpeedMPH,Gust SpeedMPH,PrecipitationIn,Events,Conditions,WindDirDegrees,DateUTC
12:53 AM,30.0,28.0,92,29.74,5.0,South,10.4,-,0.00,Snow,Light Snow,190,2012-12-17 07:53:00
1:53 AM,32.0,27.0,82,29.67,8.0,South,15.0,24.2,0.01,Snow,Light Snow,190,2012-12-17 08:53:00
2:53 AM,32.0,28.0,85,29.65,10.0,South,16.1,26.5,0.00,,Overcast,190,2012-12-17 09:53:00
3:53 AM,34.0,28.0,79,29.62,10.0,SSW,16.1,24.2,N/A,,Overcast,210,2012-12-17 10:53:00
4:53 AM,35.1,28.0,76,29.58,10.0,South,15.0,20.7,N/A,,Overcast,180,2012-12-17 11:53:00
5:14 AM,35.6,28.4,75,29.53,10.0,South,13.8,20.7,N/A,,Overcast,190,2012-12-17 12:14:00
5:53 AM,37.0,28.0,70,29.55,10.0,SSW,16.1,32.2,N/A,,Overcast,200,2012-12-17 12:53:00
6:26 AM,37.4,28.4,70,29.50,10.0,SSW,31.1,41.4,N/A,,Overcast,210,2012-12-17 13:26:00
6:53 AM,35.1,30.0,82,29.54,10.0,SSW,23.0,32.2,0.00,,Overcast,200,2012-12-17 13:53:00
7:23 AM,35.6,30.2,81,29.48,10.0,SSW,23.0,32.2,N/A,,Overcast,200,2012-12-17 14:23:00
7:53 AM,34.0,30.9,89,29.52,10.0,SSW,25.3,41.4,N/A,,Overcast,200,2012-12-17 14:53:00
8:43 AM,35.6,30.2,81,29.47,10.0,SSW,26.5,40.3,N/A,,Mostly Cloudy,210,2012-12-17 15:43:00
8:53 AM,35.1,30.9,85,29.51,10.0,SSW,31.1,43.7,N/A,,Scattered Clouds,210,2012-12-17 15:53:00
9:21 AM,35.6,32.0,87,29.47,10.0,SW,23.0,36.8,N/A,,Mostly Cloudy,220,2012-12-17 16:21:00
9:51 AM,35.6,30.2,81,29.47,10.0,SW,25.3,39.1,N/A,,Overcast,220,2012-12-17 16:51:00
9:53 AM,35.1,30.9,85,29.52,10.0,SW,27.6,39.1,N/A,,Overcast,220,2012-12-17 16:53:00
10:53 AM,34.0,30.0,85,29.55,10.0,SW,21.9,33.4,N/A,,Scattered Clouds,220,2012-12-17 17:53:00
11:17 AM,35.6,30.2,81,29.50,10.0,SSW,24.2,33.4,N/A,,Mostly Cloudy,210,2012-12-17 18:17:00
11:39 AM,35.6,30.2,81,29.51,10.0,SW,23.0,35.7,N/A,,Partly Cloudy,220,2012-12-17 18:39:00
11:53 AM,36.0,30.9,82,29.54,10.0,SSW,21.9,31.1,N/A,,Clear,210,2012-12-17 18:53:00
12:53 PM,37.0,30.0,76,29.52,10.0,SSW,23.0,33.4,N/A,,Clear,200,2012-12-17 19:53:00
1:53 PM,36.0,28.9,76,29.56,10.0,SW,25.3,34.5,N/A,,Partly Cloudy,220,2012-12-17 20:53:00
2:53 PM,35.1,28.0,76,29.57,10.0,SW,25.3,34.5,N/A,,Mostly Cloudy,220,2012-12-17 21:53:00
5:53 PM,30.9,23.0,72,29.63,10.0,SW,11.5,-,N/A,,Clear,220,2012-12-18 00:53:00
6:53 PM,30.0,21.0,69,29.68,10.0,SW,8.1,-,N/A,,Clear,230,2012-12-18 01:53:00
7:53 PM,28.9,19.0,67,29.71,10.0,SW,10.4,-,N/A,,Clear,220,2012-12-18 02:53:00
8:53 PM,27.0,19.0,72,29.73,10.0,SW,17.3,-,N/A,,Mostly Cloudy,230,2012-12-18 03:53:00
9:53 PM,25.0,18.0,75,29.76,10.0,SSW,8.1,-,N/A,,Clear,210,2012-12-18 04:53:00
10:53 PM,24.1,16.0,71,29.80,10.0,SW,9.2,-,N/A,,Clear,220,2012-12-18 05:53:00
11:53 PM,24.1,17.1,75,29.79,10.0,SSW,10.4,-,N/A,,Clear,200,2012-12-18 06:53:00